Regional Weather Roundup
Issued by NWS

Home | Current Version | Previous Version | Graphics & Text | Print | Product List | Glossary Off
Versions: 1 2 3 4 5 6 7 8 9 10 11 12 13 14 15 16 17 18 19 20 21 22 23 24 25 26 27 28 29 30 31 32 33 34 35 36 37 38 39 40 41 42 43 44 45 46 47 48 49 50

000
ASUS43 KTOP 051359
RWRKS

WEATHER ROUNDUP FOR KANSAS
NATIONAL WEATHER SERVICE GOODLAND KS
800 AM CST THU MAR 05 2015

NOTE:  "FAIR" INDICATES FEW OR NO CLOUDS BELOW 12,000 FEET WITH NO
SIGNIFICANT WEATHER AND/OR OBSTRUCTIONS TO VISIBILITY.

KSZ001>006-013>018-027>032-041>047-051500-
NORTHWEST KANSAS

CITY           SKY/WX    TMP DP  RH WIND       PRES   REMARKS
GOODLAND       CLEAR     16   9  74 W10       30.27F WCI   4
HAYS           CLEAR     10  -2  56 CALM      30.41R
HILL CITY      PTCLDY     8   1  73 CALM      30.40S
RUSSELL        SUNNY     14   6  70 SE9       30.42S
$$

KSZ061>065-074>080-084>089-051500-
SOUTHWEST KANSAS

CITY           SKY/WX    TMP DP  RH WIND       PRES   REMARKS
DODGE CITY     CLEAR     20  12  71 W8        30.41S
ELKHART          N/A     19   9  65 SW12        N/A  WCI   7
GARDEN CITY    CLEAR     15  12  88 SW8       30.38S
GREAT BEND     SUNNY     16   7  67 CALM      30.45R
LIBERAL        CLEAR      9   3  78 W5        30.42R
$$

KSZ066>073-081>083-090>101-051500-
SOUTHEAST KANSAS

CITY           SKY/WX    TMP DP  RH WIND       PRES   REMARKS
CHANUTE        SUNNY     18   9  68 NE9       30.55R
COFFEYVILLE    SUNNY     19  13  77 N3        30.56R
HUTCHINSON     SUNNY     18   8  65 E8        30.48S
MEDICINE LODGE   N/A     16  10  77 CALM      30.49R
NEWTON         SUNNY     14   1  57 E7        30.51R
PARSONS        SUNNY     21  13  71 NE5       30.56R
WICHITA INTL   SUNNY     19  11  70 CALM      30.51S
WICHITA JABRA  FAIR      15   7  70 E3        30.51R
WINFIELD       SUNNY     18  14  84 CALM      30.55R
$$

KSZ007>012-019>026-033>040-048>060-102>105-051500-
NORTHEAST KANSAS

CITY           SKY/WX    TMP DP  RH WIND       PRES   REMARKS
CONCORDIA      SUNNY     12   4  70 SE7       30.49S
EMPORIA        SUNNY     14   6  70 NE5       30.54R
LAWRENCE       SUNNY     12   5  73 NW3       30.58R
MANHATTAN      SUNNY     13   4  67 E3        30.56R
OLATHE IND     SUNNY     12   2  64 N10       30.56R WCI  -1
OLATHE EXE     SUNNY     14   1  56 N8        30.54R
SALINA         SUNNY     15   4  61 E9        30.51S
TOPEKA BILLARD SUNNY     13   3  64 CALM      30.58R
TOPEKA FORBES  SUNNY     14   4  64 CALM      30.55R
$$


USA.gov is the U.S. government's official web portal to all federal, state and local government web resources and services.